Regional Weather Roundup
Issued by NWS

Home | Current Version | Previous Version | Text Only | Print | Product List | Glossary Off
Versions: 1 2 3 4 5 6 7 8 9 10 11 12 13 14 15 16 17 18 19 20 21 22 23 24 25 26 27 28 29 30 31 32 33 34 35 36 37 38 39 40 41 42 43 44 45 46 47 48 49 50

492
ASUS43 KFSD 201110
RWRSD

WEATHER ROUNDUP FOR SOUTH DAKOTA
NATIONAL WEATHER SERVICE SIOUX FALLS SD
600 AM CDT THU JUL 20 2017

NOTE: "FAIR" INDICATES FEW OR NO CLOUDS BELOW 12,000 FEET WITH NO
SIGNIFICANT WEATHER AND/OR OBSTRUCTIONS TO VISIBILITY.


SDZ001>005-009-010-012>017-201200-
NORTHWEST AND NORTH CENTRAL SOUTH DAKOTA

CITY           SKY/WX    TMP DP  RH WIND       PRES   REMARKS
BUFFALO          N/A     68  62  81 S3        29.99S
FAITH            N/A     64  64 100 S9        30.03F
MOBRIDGE       FOG       66  65  96 S5        29.97F VSB 1/2
$$

SDZ012>016-024>037-041>051-057-063-072>074-201200-
SOUTHWEST AND SOUTH CENTRAL SOUTH DAKOTA

CITY           SKY/WX    TMP DP  RH WIND       PRES   REMARKS
RAPID CTY ARPT PTCLDY    66  62  87 W6        30.08F
PIERRE         CLOUDY    72  69  90 NE5       30.00S
CUSTER         CLOUDY    63  56  78 CALM      30.23S
ELLSWORTH AFB  PTCLDY    69  67  96 CALM      30.08S
PHILIP         CLOUDY    71  69  93 NE7       30.02F
PINE RIDGE     CLOUDY    67  67 100 S5        30.08R
SPEARFISH      FAIR      70  59  68 CALM      30.10S
WINNER         FAIR      74  70  87 E6        30.01F
$$

SDZ004>011-016>023-039-040-201200-
NORTHEAST SOUTH DAKOTA

CITY           SKY/WX    TMP DP  RH WIND       PRES   REMARKS
ABERDEEN       FOG       63  63 100 CALM      30.00R VSB 1/4
WATERTOWN      FOG       64  64 100 CALM      30.01S VSB 3/4
BROOKINGS      CLOUDY    68  67  96 S3        30.02R
SISSETON         N/A     60  59  96 CALM      29.98R
$$

SDZ017-020-022-023-036>040-048>070-201200-
SOUTHEAST SOUTH DAKOTA

CITY           SKY/WX    TMP DP  RH WIND       PRES   REMARKS
SIOUX FALLS    CLOUDY    71  69  93 NE6       29.99R
HURON          CLOUDY    70  70 100 N10       29.98S FOG
CHAMBERLAIN    CLOUDY    73  71  96 E3        30.00S
MITCHELL       CLOUDY    72  71  97 CALM      30.00R
YANKTON        CLOUDY    72  70  93 N7        29.98R
$$

ABBREVIATIONS USED IN REMARKS
   TC - TEMPERATURE IN CELSIUS
  WCI - WIND CHILL INDEX
   HX - HEAT INDEX
  VSB - VISIBILITY





USA.gov is the U.S. government's official web portal to all federal, state and local government web resources and services.